#timestamp,LO_Frequency,Hit,StdDev 
1590681615.6,286046998.8,N
1590681635.5,286046999.1,N
1590681655.3,286046999.3,N
1590681675.1,286046998.7,N
1590681695.9,286046999.0,N
1590681715.7,286046998.7,N
1590681735.5,286046998.7,N
1590681755.4,286047001.2,N
1590681775.2,286047001.7,N
1590681795.1,286047002.0,N
1590681796.0,286047002.0,N
1590681815.8,286047002.0,N
1590681835.6,286047002.0,N
1590681855.5,286047004.4,Y
1590681875.3,286047001.8,P
1590681895.1,286047002.3,P
1590681915.9,286046999.7,N
1590681935.7,286047000.2,N
1590681955.6,286046998.3,N
1590681975.4,286047000.4,N
1590681995.2,286047001.8,N
1590682015.1,286047001.6,N
1590682016.0,286047001.6,N
1590682035.8,286047004.8,Y
1590682055.7,286047005.1,P
1590682075.5,286047007.3,P
1590682095.3,286047005.3,N
1590682115.2,286047005.8,N
1590682135.0,286047004.2,N
1590682135.9,286047004.2,N
1590682155.8,286047004.4,N
1590682175.6,286047003.9,N
1590682195.4,286047004.2,N
1590682215.3,286047003.8,N
1590682235.1,286047001.8,N
1590682255.8,286046999.9,N
1590682275.7,286047000.1,N
1590682295.5,286047000.9,N
1590682315.4,286047004.3,N
1590682335.2,286047004.7,N
1590682355.0,286047007.2,Y
1590682355.9,286047007.2,P
1590682375.8,286047001.6,N
1590682395.6,286047000.7,N
1590682415.4,286047001.2,N
1590682435.3,286046997.1,N
1590682455.1,286046997.6,N
1590682475.9,286046995.6,N
1590682495.7,286046993.7,N
1590682515.5,286046993.9,N
1590682535.4,286046994.2,N
1590682555.2,286046992.4,N
1590682575.0,286046992.9,N
1590682575.9,286046992.9,N
1590682595.8,286046992.7,N
1590682615.6,286046990.6,N
1590682635.5,286046990.3,N
1590682655.3,286046992.9,N
1590682675.1,286046992.5,N
1590682695.9,286046993.0,N
1590682715.7,286046990.4,N
1590682735.5,286046992.5,N
1590682755.4,286046991.9,N
1590682775.2,286046992.5,N
1590682795.1,286046992.7,N
1590682796.0,286046992.7,N
1590682815.8,286046990.2,N
1590682835.6,286046993.0,N
1590682855.5,286046992.1,N
1590682875.3,286046992.4,N
1590682895.2,286046994.8,N
1590682915.9,286046993.9,N
1590682935.7,286046996.2,N
1590682955.6,286046996.8,N
1590682975.4,286047001.1,N
1590682995.2,286046999.8,N
1590683015.1,286047000.6,N
1590683016.0,286047000.6,N
1590683035.8,286046999.7,N
1590683055.7,286047002.3,N
1590683075.5,286047002.2,N
1590683095.3,286047001.3,N
1590683115.2,286047003.9,N
1590683135.0,286047005.4,N
1590683135.9,286047005.4,N
1590683155.7,286047005.8,N
1590683175.6,286047005.2,N
1590683195.4,286047004.9,N
1590683215.3,286047004.7,N
1590683235.1,286047005.3,N
1590683236.0,286047005.3,N
1590683255.8,286047005.6,N
1590683275.7,286047003.4,N
1590683295.5,286047006.0,N
1590683315.3,286047004.6,N
1590683335.2,286047004.6,N
1590683355.0,286047006.7,N
1590683355.9,286047006.7,N
1590683375.8,286047006.6,N
1590683395.6,286047006.7,N
1590683415.4,286047007.4,N
1590683435.3,286047006.4,N
1590683455.1,286047008.2,N
1590683475.8,286047006.7,N
1590683495.7,286047006.7,N
1590683515.5,286047007.3,Y
1590683535.3,286047001.7,P
1590683555.2,286047001.9,N
1590683575.0,286046999.7,N
1590683575.9,286046999.7,N
1590683595.8,286046998.1,N
1590683615.6,286046999.9,N
1590683635.4,286047002.0,N
1590683655.3,286047001.7,N
1590683675.1,286047003.1,N
1590683695.8,286047001.7,N
1590683715.7,286047003.9,N
1590683735.5,286047002.0,N
1590683755.4,286047002.7,N
1590683775.2,286046999.7,N
1590683795.0,286046999.7,N
1590683795.9,286046999.7,N
1590683815.8,286046999.8,N
1590683835.6,286047002.1,N
1590683855.4,286047002.3,N
1590683875.3,286047001.5,N
1590683895.1,286047001.7,N
1590683915.9,286047001.4,N
1590683935.7,286047004.0,N
1590683955.5,286047001.8,N
1590683975.4,286047002.8,N
1590683995.2,286047001.9,N
1590684015.0,286047002.5,N
1590684015.9,286047002.5,N
1590684035.8,286047001.6,N
1590684055.6,286047002.8,N
1590684075.4,286047002.5,N
1590684095.3,286047001.3,N
1590684115.1,286047002.4,N
1590684135.9,286047004.0,N
1590684155.7,286047003.1,N
1590684175.5,286047004.1,Y
1590684195.4,286047000.5,P
1590684215.2,286047002.7,P
1590684235.0,286047002.0,N
1590684236.0,286047002.0,N
1590684255.8,286046999.8,N
1590684275.6,286047002.4,N
1590684295.5,286047002.1,N
1590684315.3,286047000.6,N
1590684365.2,286047002.1,E
1590684375.1,286047000.4,N
1590684376.0,286047000.4,P
1590684395.8,286046996.7,P
1590684415.7,286046999.0,N
1590684435.5,286046999.5,N
1590684455.3,286047011.9,Y
1590684475.2,286047000.2,P
1590684495.0,286047002.7,P
1590684495.9,286047002.7,N
1590684515.8,286047002.0,N
1590684535.6,286047002.0,N
1590684555.4,286047002.6,N
1590684575.3,286047001.9,N
1590684595.1,286047001.6,N
1590684615.9,286047001.9,N
1590684635.7,286047001.4,N
1590684655.5,286047004.3,Y
1590684675.4,286047000.3,P
1590684695.2,286047001.2,N
1590684715.0,286047000.5,N
1590684716.0,286047000.5,N
1590684735.8,286047001.1,N
1590684755.6,286046999.0,N
1590684775.5,286046998.4,N
1590684795.3,286046999.3,N
1590684815.1,286046996.5,Y
1590684835.9,286046998.5,P
1590684855.7,286046998.1,N
1590684875.6,286047000.7,N
1590684895.4,286047002.7,N
1590684915.2,286047000.9,N
1590684935.1,286046999.9,N
1590684936.0,286046999.9,N
1590684955.8,286047001.9,N
1590684975.7,286046999.7,N
1590684995.5,286047000.6,N
1590685015.3,286047000.6,N
1590685035.2,286047000.6,N
1590685055.9,286047000.4,N
1590685075.7,286047001.0,N
1590685095.6,286047001.0,N
1590685115.4,286047002.5,N
1590685135.2,286047000.5,N
1590685155.1,286047002.4,N
1590685156.0,286047002.4,N
1590685175.8,286047001.5,N
1590685195.7,286047000.2,N
